Flag for Switzerland Weather past 2 weeks in Lausanne, Vaud, Switzerland

Now
50 °F

Cool.


Feels Like: 48 °F
Forecast: 25 / 64 °F
Wind: 6 mph from North

Location: Aigle


UV Index: 5 (Moderate)

Visibility: N/A


Pressure: 30.19 "Hg

Humidity: 48%

Dew point: 31 °F

Location of LausanneLocation

Historic Weather in Lausanne

°F

Lausanne temperature yesterday

Maximum temperature yesterday: 60 °F (at 5:00 PM)
Minimum temperature yesterday: 33 °F (at 4:00 AM)
Average temperature yesterday: 48 °F

Past Weeks' High & Low Weather Summary

 TemperatureHumidityPressure
High69 °F (Apr 7, 5:00 PM)98% (Apr 5, 7:00 AM)30.32 "Hg (Apr 5, 7:00 AM)
Low33 °F (Apr 16, 4:00 AM)27% (Apr 15, 6:00 PM)29.62 "Hg (Apr 3, 6:00 PM)
Average55 °F65%30.01 "Hg
* Reported Apr 1 11:00 PM — Apr 16 10:00 PM, Lausanne, Weather by CustomWeather, © 2014

Note: Actual official high and low records may vary slightly from our data, if they occured in-between our weather recording intervals... More about our weather records

Advertising

Historic Weather Conditions — Data for Previous 24 hours

 ConditionsComfort  
Time TempWeatherWind HumidityBarometerVisibility
10:00 PM
Apr 16
50 °FCool.6 mph48%30.19 "HgN/A
9:00 PM53 °FCool.12 mph41%30.17 "HgN/A
8:00 PM55 °FSunny.9 mph39%30.15 "Hg19 mi
7:00 PM58 °FRefreshingly cool.13 mph34%30.13 "HgN/A
6:00 PM59 °FRefreshingly cool.14 mph33%30.12 "HgN/A
5:00 PM60 °FSunny.14 mph33%30.12 "Hg19 mi
4:00 PM59 °FRefreshingly cool.16 mph33%30.13 "HgN/A
3:00 PM58 °FRefreshingly cool.12 mph37%30.14 "HgN/A
2:00 PM56 °FSunny.10 mph40%30.16 "Hg16 mi
1:00 PM53 °FCool.7 mph45%30.18 "HgN/A
12:00 PM49 °FCool.9 mph49%30.20 "HgN/A
10:00 AM45 °FQuite cool.10 mph55%30.22 "HgN/A
9:00 AM43 °FQuite cool.7 mph62%30.23 "HgN/A
8:00 AM40 °FSunny.3 mph66%30.24 "Hg19 mi
7:00 AM39 °FChilly.3 mph67%30.24 "HgN/A
6:00 AM34 °FChilly.No wind84%30.25 "HgN/A
5:00 AM38 °FChilly.1 mph70%30.24 "HgN/A
4:00 AM33 °FChilly.1 mph86%30.25 "HgN/A
3:00 AM35 °FChilly.2 mph84%30.24 "HgN/A
2:00 AM38 °FChilly.1 mph75%30.24 "HgN/A
Weather by CustomWeather, © 2014

See weather overview